Zurück zum Katalog

STARLINK-33985

AktivKommunikationVLEO
NORAD 63943·PAYLOAD·🇺🇸 United States

Gestartet May 13, 2025 von Vandenberg Space Force Base

Loading…

Nächste Überflüge (nächste 24 Stunden)

TLE

AktuellSource: CelesTrak SupGP

Epoche: Sep 15, 2026, 02:19 UTC

1 63943C 25098T   26258.09701389  .00014577  00000+0  50722-3 0  2589
2 63943  70.0002 155.3006 0003189 273.6040  81.8032 15.29563559    12

Verfolge STARLINK-33985 in Echtzeit mit AllMySat

Download on the App Store